| time (UTC) | temp F | wind direction | speed knots | gust knots | rain 1hr in | rain 24hr in | rain mn in | humidity % | barometer mb |
| 20260507082726 | 48 | 172 | 3.5 | 7.0 | 0.00 | 0.00 | 0.00 | 23 | 1016.5 |
| 20260507080725 | 48 | 199 | 4.3 | 11.3 | 0.00 | 0.00 | 0.00 | 26 | 1016.6 |
| 20260507074725 | 47 | 254 | 3.5 | 6.1 | 0.00 | 0.00 | 0.00 | 28 | 1016.6 |
| 20260507072726 | 46 | 266 | 2.6 | 6.1 | 0.00 | 0.00 | 0.00 | 31 | 1016.6 |
| 20260507070725 | 46 | 261 | 3.5 | 6.1 | 0.00 | 0.00 | 0.00 | 35 | 1016.6 |
| 20260507064725 | 47 | 111 | 2.6 | 5.2 | 0.00 | 0.00 | 0.00 | 33 | 1016.6 |
| 20260507062725 | 45 | 103 | 2.6 | 7.0 | 0.00 | 0.00 | 0.00 | 34 | 1016.6 |
| 20260507060725 | 44 | 126 | 2.6 | 4.3 | 0.00 | 0.00 | 0.00 | 40 | 1016.5 |
| 20260507054725 | 43 | 87 | 4.3 | 6.1 | 0.00 | 0.00 | 0.00 | 44 | 1016.5 |
| 20260507052725 | 42 | 78 | 3.5 | 5.2 | 0.00 | 0.00 | 0.00 | 47 | 1016.4 |
| 20260507050724 | 40 | 23 | 1.7 | 3.5 | 0.00 | 0.00 | 0.00 | 52 | 1016.6 |
| 20260507044725 | 39 | 45 | 1.7 | 2.6 | 0.00 | 0.00 | 0.00 | 58 | 1016.8 |
| 20260507042724 | 35 | 359 | 0.9 | 1.7 | 0.00 | 0.00 | 0.00 | 69 | 1016.8 |
| 20260507040725 | 32 | 80 | 0.9 | 1.7 | 0.00 | 0.00 | 0.00 | 75 | 1016.9 |
| 20260507032726 | 27 | 0.0 | 0.9 | 0.00 | 0.00 | 0.00 | 82 | 1017.0 | |
| 20260507024724 | 26 | 0.0 | 0.9 | 0.00 | 0.00 | 0.00 | 82 | 1017.1 | |
| 20260507022725 | 24 | 129 | 0.9 | 1.7 | 0.00 | 0.00 | 0.00 | 89 | 1017.0 |
| 20260507020724 | 24 | 105 | 1.7 | 1.7 | 0.00 | 0.00 | 0.00 | 87 | 1016.9 |
| 20260507014725 | 25 | 0.0 | 0.9 | 0.00 | 0.00 | 0.00 | 86 | 1016.7 | |
| 20260507012724 | 24 | 127 | 1.7 | 2.6 | 0.00 | 0.00 | 0.00 | 89 | 1016.6 |
| 20260507010724 | 25 | 141 | 1.7 | 2.6 | 0.00 | 0.00 | 0.00 | 84 | 1016.6 |
| 20260507005050 | 25 | 67 | 1.7 | 2.6 | 0.00 | 0.00 | 0.00 | 84 | 1016.4 |
| 20260507002725 | 25 | 0.0 | 1.7 | 0.00 | 0.00 | 0.00 | 83 | 1016.5 | |
| 20260507000724 | 25 | 0.0 | 0.9 | 0.00 | 0.00 | 0.00 | 79 | 1016.4 | |
| 20260506234724 | 26 | 88 | 0.9 | 0.9 | 0.00 | 0.00 | 0.00 | 81 | 1016.2 |
| 20260506232724 | 27 | 238 | 1.7 | 2.6 | 0.00 | 0.00 | 0.00 | 73 | 1016.1 |
| 20260506230726 | 27 | 219 | 0.9 | 1.7 | 0.00 | 0.00 | 0.00 | 74 | 1016.0 |
| 20260506224724 | 27 | 114 | 1.7 | 1.7 | 0.00 | 0.00 | 0.00 | 80 | 1016.0 |
| 20260506222724 | 27 | 97 | 0.9 | 1.7 | 0.00 | 0.00 | 0.00 | 78 | 1015.8 |
| 20260506220724 | 28 | 107 | 0.9 | 1.7 | 0.00 | 0.00 | 0.00 | 74 | 1015.7 |
| 20260506214724 | 28 | 115 | 0.9 | 1.7 | 0.00 | 0.00 | 0.00 | 72 | 1015.5 |
| 20260506212724 | 29 | 77 | 1.7 | 2.6 | 0.00 | 0.00 | 0.00 | 72 | 1015.5 |
| 20260506210723 | 29 | 82 | 1.7 | 2.6 | 0.00 | 0.00 | 0.00 | 72 | 1015.4 |
| 20260506204723 | 30 | 119 | 1.7 | 1.7 | 0.00 | 0.00 | 0.00 | 69 | 1015.3 |
| 20260506202723 | 31 | 105 | 0.9 | 1.7 | 0.00 | 0.00 | 0.00 | 67 | 1015.3 |
| 20260506200724 | 35 | 190 | 0.9 | 0.9 | 0.00 | 0.00 | 0.00 | 53 | 1015.1 |
| 20260506194723 | 36 | 278 | 0.9 | 1.7 | 0.00 | 0.00 | 0.00 | 50 | 1015.0 |
| 20260506192723 | 37 | 256 | 2.6 | 2.6 | 0.00 | 0.00 | 0.00 | 47 | 1015.0 |
| 20260506190723 | 39 | 252 | 2.6 | 3.5 | 0.00 | 0.00 | 0.00 | 43 | 1014.9 |
| 20260506184723 | 40 | 285 | 3.5 | 5.2 | 0.00 | 0.00 | 0.00 | 41 | 1014.7 |
| 20260506182724 | 44 | 280 | 4.3 | 6.1 | 0.00 | 0.00 | 0.00 | 32 | 1014.5 |
| 20260506180723 | 44 | 286 | 5.2 | 7.0 | 0.00 | 0.00 | 0.00 | 30 | 1014.3 |
| 20260506174723 | 45 | 270 | 6.1 | 7.8 | 0.00 | 0.00 | 0.00 | 29 | 1014.1 |
| 20260506172722 | 46 | 280 | 7.0 | 9.6 | 0.00 | 0.00 | 0.00 | 28 | 1014.0 |
| 20260506170723 | 46 | 284 | 7.8 | 10.4 | 0.00 | 0.00 | 0.00 | 26 | 1013.9 |
| 20260506164722 | 47 | 286 | 7.8 | 11.3 | 0.00 | 0.00 | 0.00 | 27 | 1013.7 |
| 20260506162723 | 47 | 294 | 7.8 | 12.2 | 0.00 | 0.00 | 0.00 | 27 | 1013.7 |
| 20260506154723 | 48 | 308 | 9.6 | 13.0 | 0.00 | 0.00 | 0.00 | 27 | 1013.6 |
| 20260506152723 | 48 | 289 | 9.6 | 14.8 | 0.00 | 0.00 | 0.00 | 26 | 1013.5 |
| 20260506144722 | 49 | 274 | 11.3 | 16.5 | 0.00 | 0.00 | 0.00 | 27 | 1013.5 |
| 20260506142722 | 49 | 259 | 13.0 | 18.2 | 0.00 | 0.00 | 0.00 | 26 | 1013.4 |
| 20260506140721 | 50 | 254 | 12.2 | 17.4 | 0.00 | 0.00 | 0.00 | 25 | 1013.3 |
| 20260506134722 | 50 | 297 | 11.3 | 15.6 | 0.00 | 0.00 | 0.00 | 25 | 1013.4 |
| 20260506132722 | 49 | 271 | 10.4 | 16.5 | 0.00 | 0.00 | 0.00 | 25 | 1013.2 |
| 20260506130721 | 49 | 288 | 10.4 | 15.6 | 0.00 | 0.00 | 0.00 | 25 | 1013.2 |
| 20260506124721 | 49 | 266 | 11.3 | 18.2 | 0.00 | 0.00 | 0.00 | 24 | 1013.0 |
| 20260506122722 | 50 | 267 | 12.2 | 20.0 | 0.00 | 0.00 | 0.00 | 31 | 1013.0 |
| 20260506120722 | 49 | 282 | 11.3 | 16.5 | 0.00 | 0.00 | 0.00 | 26 | 1013.0 |
| 20260506115048 | 49 | 293 | 13.0 | 20.0 | 0.00 | 0.00 | 0.00 | 25 | 1012.9 |
| 20260506112722 | 48 | 258 | 15.6 | 21.7 | 0.00 | 0.00 | 0.00 | 27 | 1012.6 |
| 20260506110722 | 48 | 259 | 16.5 | 22.6 | 0.00 | 0.00 | 0.00 | 28 | 1012.6 |
| 20260506104723 | 49 | 248 | 14.8 | 22.6 | 0.00 | 0.00 | 0.00 | 28 | 1012.4 |
| 20260506102723 | 48 | 266 | 13.9 | 21.7 | 0.00 | 0.00 | 0.00 | 29 | 1012.5 |
| 20260506100723 | 49 | 268 | 13.9 | 19.1 | 0.00 | 0.00 | 0.00 | 26 | 1012.4 |
| 20260506094723 | 48 | 264 | 16.5 | 24.3 | 0.00 | 0.00 | 0.00 | 26 | 1012.2 |
| 20260506092722 | 49 | 259 | 15.6 | 24.3 | 0.00 | 0.00 | 0.00 | 28 | 1012.1 |
| 20260506090722 | 47 | 263 | 14.8 | 19.1 | 0.00 | 0.00 | 0.00 | 30 | 1012.1 |
| 20260506084723 | 47 | 262 | 13.0 | 19.1 | 0.00 | 0.00 | 0.00 | 33 | 1012.0 |